Millville, NJ

6:05 AM EST on December 12, 2019 (GMT -0500)
Millville Municipal

Weather History for KMIV - October, 2019

Change the Weather History Date:

Sunday, October 27, 2019

  Actual Average Record
Temperature  
Mean Temperature 65 °F -  
Max Temperature 73 °F 63 °F 84 °F (1984)
Min Temperature 57 °F 42 °F 26 °F (1988)
Growing Degree Days 15 (Base 50)    
Moisture  
Dew Point 62 °F    
Average Humidity 87    
Maximum Humidity 93    
Minimum Humidity 60    
Precipitation  
Precipitation 1.10 in - - ()
Sea Level Pressure  
Sea Level Pressure 29.86 in    
Wind  
Wind Speed 10 mph ()    
Max Wind Speed 21 mph    
Max Gust Speed 26 mph    
Visibility 6.9 miles    
Events Fog , Rain    
Averages and records for this station are not official NWS values.
T = Trace of Precipitation, MM = Missing Value Source: Averaged Metar Reports

Daily Weather History Graph

Daily Weather History Graph

Search for Another Location

Airport or City:

Astronomy

Oct. 27, 2019 Rise Set
Actual Time 7:22 AM EDT 6:05 PM EDT
Civil Twilight 6:54 AM EDT 6:32 PM EDT
Nautical Twilight 6:23 AM EDT 7:04 PM EDT
Astronomical Twilight 5:52 AM EDT 7:35 PM EDT
Moon 6:28 AM EDT (10/27) 6:12 PM EDT (10/27)
Length of Visible Light 11h 37m
Length of Day
10h 42m
Waning Crescent, 0% of the Moon is Illuminated
Oct 27
Waning Crescent
Oct 27
New
Nov 4
First Quarter
Nov 12
Full
Nov 19
Last Quarter

Hourly Weather History & Observations

Time (EDT) Temp. Dew Point Humidity Pressure Visibility Wind Dir Wind Speed Gust Speed Precip Events Conditions
12:54 AM 57.0 °F 53.1 °F 87% 30.15 in 10.0 mi ESE 5.8 mph - N/A   Clear
1:54 AM 60.1 °F 54.0 °F 80% 30.12 in 10.0 mi ESE 10.4 mph - N/A   Scattered Clouds
2:54 AM 60.1 °F 55.0 °F 83% 30.09 in 10.0 mi ESE 10.4 mph - N/A   Partly Cloudy
3:54 AM 60.1 °F 55.9 °F 86% 30.06 in 10.0 mi ESE 10.4 mph - 0.00 in Rain Light Rain
4:54 AM 61.0 °F 57.0 °F 87% 30.04 in 10.0 mi ESE 13.8 mph - 0.01 in   Overcast
6:14 AM 62.1 °F 59.0 °F 90% 29.98 in 6.0 mi ESE 12.7 mph - 0.03 in Rain Light Rain
6:45 AM 62.1 °F 59.0 °F 90% 29.96 in 10.0 mi ESE 11.5 mph - 0.07 in Rain Light Rain
6:54 AM 62.1 °F 60.1 °F 93% 29.96 in 8.0 mi SE 15.0 mph - 0.08 in Rain Light Rain
7:02 AM 62.1 °F 60.1 °F 93% 29.96 in 7.0 mi SE 16.1 mph 21.9 mph 0.01 in Rain Light Rain
7:54 AM 63.0 °F 61.0 °F 93% 29.93 in 7.0 mi SE 15.0 mph - 0.05 in Rain Light Rain
8:09 AM 63.0 °F 61.0 °F 93% 29.93 in 6.0 mi SE 13.8 mph - 0.02 in Rain Light Rain
8:38 AM 64.0 °F 62.1 °F 93% 29.91 in 9.0 mi SE 12.7 mph - 0.02 in   Overcast
8:46 AM 64.9 °F 62.1 °F 90% 29.91 in 6.0 mi SE 12.7 mph - 0.03 in Rain Light Rain
8:54 AM 64.9 °F 62.1 °F 90% 29.91 in 5.0 mi SE 15.0 mph - 0.03 in Rain Light Rain
9:02 AM 64.9 °F 63.0 °F 93% 29.90 in 1.8 mi SE 15.0 mph 26.5 mph 0.03 in Rain Rain
9:09 AM 64.9 °F 63.0 °F 93% 29.90 in 3.0 mi SE 16.1 mph 23.0 mph 0.05 in Rain Light Rain
9:45 AM 66.0 °F 64.0 °F 93% 29.87 in 1.8 mi South 8.1 mph 18.4 mph 0.12 in Rain Rain
9:54 AM 66.0 °F 64.0 °F 93% 29.86 in 1.2 mi SE 13.8 mph 19.6 mph 0.19 in Rain Heavy Rain
10:01 AM 66.9 °F 64.0 °F 90% 29.86 in 3.0 mi SSE 10.4 mph - 0.02 in Rain Light Rain
10:54 AM 68.0 °F 66.0 °F 93% 29.82 in 9.0 mi SSE 13.8 mph 20.7 mph 0.03 in   Overcast
11:44 AM 68.0 °F 66.0 °F 93% 29.82 in 1.5 mi Variable 6.9 mph - 0.08 in Rain Rain
11:54 AM 68.0 °F 66.0 °F 93% 29.81 in 1.5 mi Variable 5.8 mph - 0.13 in Rain Light Rain
12:54 PM 70.0 °F 68.0 °F 93% 29.75 in 0.5 mi Variable 5.8 mph - 0.56 in Fog , Rain Heavy Rain
1:05 PM 70.0 °F 68.0 °F 93% 29.76 in 2.0 mi SW 6.9 mph - 0.05 in Rain Rain
1:16 PM 70.0 °F 68.0 °F 93% 29.74 in 8.0 mi Variable 5.8 mph - 0.05 in Rain Light Rain
1:33 PM 70.0 °F 68.0 °F 93% 29.72 in 2.5 mi Variable 6.9 mph - 0.06 in Rain Light Rain
1:47 PM 70.0 °F 68.0 °F 93% 29.71 in 5.0 mi Variable 5.8 mph - 0.07 in Rain Light Rain
2:30 PM 72.0 °F 69.1 °F 91% 29.71 in 10.0 mi SW 8.1 mph - 0.00 in   Overcast
2:40 PM 72.0 °F 70.0 °F 93% 29.72 in 3.0 mi West 13.8 mph 21.9 mph 0.02 in Rain Rain
2:51 PM 71.6 °F 68.0 °F 88% 29.73 in 6.0 mi NW 20.7 mph 26.5 mph 0.02 in   Overcast
2:54 PM 70.0 °F 66.9 °F 90% 29.73 in 7.0 mi NW 16.1 mph 26.5 mph 0.02 in   Overcast
2:57 PM 70.0 °F 66.9 °F 90% 29.73 in 8.0 mi WNW 19.6 mph 26.5 mph N/A   Overcast
3:05 PM 69.1 °F 66.0 °F 90% 29.73 in 10.0 mi WNW 9.2 mph 25.3 mph 0.00 in Rain Light Rain
3:35 PM 72.0 °F 66.9 °F 84% 29.73 in 10.0 mi West 5.8 mph - 0.00 in   Mostly Cloudy
3:54 PM 73.0 °F 66.0 °F 79% 29.74 in 10.0 mi West 12.7 mph - 0.00 in   Partly Cloudy
4:54 PM 73.0 °F 66.0 °F 79% 29.76 in 10.0 mi West 6.9 mph - N/A   Clear
5:54 PM 70.0 °F 64.9 °F 84% 29.78 in 10.0 mi WSW 4.6 mph - N/A   Clear
6:54 PM 66.9 °F 62.1 °F 84% 29.82 in 10.0 mi West 5.8 mph - N/A   Clear
7:54 PM 64.9 °F 61.0 °F 87% 29.85 in 10.0 mi WSW 3.5 mph - N/A   Clear
8:54 PM 64.0 °F 57.0 °F 78% 29.88 in 10.0 mi WNW 6.9 mph - N/A   Clear
9:54 PM 64.0 °F 50.0 °F 60% 29.92 in 10.0 mi WNW 12.7 mph - N/A   Clear
10:54 PM 61.0 °F 48.9 °F 64% 29.94 in 10.0 mi WNW 6.9 mph 19.6 mph N/A   Clear
11:54 PM 60.1 °F 48.0 °F 64% 29.96 in 10.0 mi NW 10.4 mph - N/A   Clear